ANDOYA current weather conditions

sailwx.info

Wind from 100 at 10 knots

Air temperature 6.0° C
Visibility: greater than 5.4 NM
Dewpoint -3.0° C

Last reported at 2014-Sep-23 14:50 UTC.
Time now 2014-Sep-23 16:22 UTC

Location: N 69°18' E 016°09'.
View on Google Maps.

See reports from other nearby stations

  
Tides and Currents Weather Stations Pressure Air Temp Water Temp Dewpoint Dewpoint Depression Visibility Wind Speed Wind Dir Waves Ship Positions
date/time (UTC)wind fromknots sea level pressurealtimeterstation pressurevisibilityair tempwater tempwave heightnotes
2014-Sep-23 15:20 100 9 5.4 5.0
2014-Sep-23 14:50 100 10 5.4 6.0
2014-Sep-23 14:20 100 9 5.4 6.0
2014-Sep-23 13:50 100 9 5.4 6.0
2014-Sep-23 13:20 110 10 5.4 6.0
2014-Sep-23 12:50 120 9 5.4 6.0
2014-Sep-23 12:20 100 9 5.4 6.0
2014-Sep-23 11:50 110 11 5.4 6.0
2014-Sep-23 11:20 110 10 5.4 6.0
2014-Sep-23 10:50 100 10 5.4 6.0
2014-Sep-23 10:20 120 11 5.4 6.0
2014-Sep-23 09:50 120 10 5.4 6.0
2014-Sep-23 09:20 120 9 5.4 5.0
2014-Sep-23 08:50 120 7 5.4 5.0
2014-Sep-23 08:20 120 10 5.4 5.0
2014-Sep-23 07:50 130 9 5.4 5.0
2014-Sep-23 07:20 120 8 5.4 4.0
2014-Sep-23 06:50 130 8 5.4 4.0
2014-Sep-23 06:20 120 8 5.4 3.0
2014-Sep-23 05:50 120 8 5.4 2.0
2014-Sep-23 05:20 110 7 5.4 2.0
2014-Sep-23 04:50 130 6 5.4 2.0
2014-Sep-23 04:20 220 2 5.4 2.0
2014-Sep-23 03:50 250 3 5.4 2.0
2014-Sep-23 03:20 190 5 5.4 2.0
2014-Sep-23 02:50 150 5 5.4 2.0
2014-Sep-23 00:50 5.4 2.0
2014-Sep-22 23:50 230 4 5.4 2.0
2014-Sep-22 22:50 240 3 5.4 2.0 Showers in the vicinity.
2014-Sep-22 21:50 240 5 5.4 2.0 Showers in the vicinity.
2014-Sep-22 20:50 210 2 5.4 1.0
2014-Sep-22 19:50 230 4 5.4 2.0
2014-Sep-22 18:50 220 5 5.4 2.0
2014-Sep-22 17:50 330 11 5.4 3.0 Showers in the vicinity.
2014-Sep-22 17:20 360 3 5.4 3.0 Showers in the vicinity.
2014-Sep-22 16:50 360 6 5.4 3.0
2014-Sep-22 16:20 360 6 5.4 3.0
2014-Sep-22 15:50 350 3 5.4 4.0
2014-Sep-22 15:20 330 5 5.4 4.0
2014-Sep-22 14:50 300 4 5.4 4.0 Showers in the vicinity.
2014-Sep-22 14:20 250 4 5.4 3.0 Showers in the vicinity.
2014-Sep-22 13:50 230 5 5.4 3.0 Showers in the vicinity.
2014-Sep-22 13:20 180 4 5.4 2.0 Showers in the vicinity.
2014-Sep-22 12:50 040 12 2.2 2.0 Light snow showers.
2014-Sep-22 12:20 050 4 5.4 5.0 Showers in the vicinity.
2014-Sep-22 11:50 350 4 5.4 5.0 Showers in the vicinity.
2014-Sep-22 11:20 100 6 5.4 5.0 Showers in the vicinity.
2014-Sep-22 10:50 090 10 5.4 4.0 Showers in the vicinity.
2014-Sep-22 10:20 060 6 5.4 4.0 Showers in the vicinity.
2014-Sep-22 09:50 010 6 5.4 5.0 Showers in the vicinity.
2014-Sep-22 09:20 5.4 4.0 Showers in the vicinity.
2014-Sep-22 08:50 040 5 5.4 2.0 Showers in the vicinity.
2014-Sep-22 08:20 040 13 5.4 2.0 Light rain showers.
2014-Sep-22 07:50 050 4 5.4 4.0 Showers in the vicinity.
2014-Sep-22 07:20 040 9 5.4 3.0 Showers in the vicinity.
2014-Sep-22 06:50 040 17 5.4 3.0 Showers in the vicinity.
2014-Sep-22 06:20 030 16 5.4 3.0 Showers in the vicinity.
2014-Sep-22 05:50 350 13 5.4 3.0 Showers in the vicinity.
2014-Sep-22 05:20 360 13 5.4 3.0 Showers in the vicinity.
2014-Sep-22 04:50 350 13 5.4 3.0 Showers in the vicinity.
2014-Sep-22 04:20 350 13 5.4 3.0 Showers in the vicinity.
2014-Sep-22 03:50 340 11 5.4 3.0 Showers in the vicinity.
2014-Sep-22 03:20 330 7 5.4 2.0 Showers in the vicinity.
2014-Sep-22 02:50 360 15 gusting 25 5.4 2.0 Light rain showers.
2014-Sep-22 01:50 320 8 5.4 3.0 Showers in the vicinity.
2014-Sep-22 00:50 350 14 5.4 3.0 Light rain showers.
2014-Sep-21 23:50 320 10 5.4 3.0
2014-Sep-21 22:50 250 8 5.4 2.0 Showers in the vicinity.
2014-Sep-21 21:50 340 13 2.7 2.0 Light snow showers.
2014-Sep-21 20:50 360 11 5.4 4.0
2014-Sep-21 19:50 360 5 5.4 3.0 Showers in the vicinity.
2014-Sep-21 18:50 330 8 5.4 4.0 Light rain showers.
2014-Sep-21 17:50 360 13 5.4 4.0 Showers in the vicinity.
2014-Sep-21 17:20 360 12 5.4 4.0 Showers in the vicinity.
2014-Sep-21 16:50 350 8 5.4 4.0 Showers in the vicinity.
2014-Sep-21 16:20 360 11 5.4 4.0 Showers in the vicinity.